Location: Barrialito
(10.1025°N, 66.8154°W)
Time: 00:13:15
(UTC+00:00)

USA 215 - Pass Details

Date: 14 December 2024
Orbit: 1099 x 1108 km, 123.0° (Epoch: 15 January)

Event Time Altitude Azimuth Distance (km) Brightness Sun altitude
Exits shadow 01:13:38 28° 278° (W) 1,939 4.8 -43.3°
Drops below altitude 10° 01:17:01 10° 301° (WNW) 2,953 5.8 -44.0°
Sets 01:19:41 0° 309° (NW) 3,909 6.4 -44.6°
